• En España
  • Lista de países
  • Para 7 días
  • Temperatura del agua
  • Mapa Satelital
  • El tiempo en el mapa
  • Informadores
  • user-avatar
    Iniciar sesión

    Tiempo cada hora Stepanakert

    Hoy, 23 Junio, Sábado

    Tiempo Temperatura Precipitaciones Viento Presión Humedad
    00:00 +20°C° 0 mm 2 mps 690 mmHg 51%
    01:00 +20°C° 0 mm 2 mps 690 mmHg 50%
    02:00 +19°C° 0 mm 2 mps 690 mmHg 49%
    03:00 +19°C° 0 mm 2 mps 690 mmHg 51%
    04:00 +20°C° 0 mm 2 mps 690 mmHg 50%
    05:00 +21°C° 0 mm 1 mps 690 mmHg 49%
    06:00 +22°C° 0 mm 1 mps 691 mmHg 48%
    07:00 +24°C° 0 mm 1 mps 691 mmHg 42%
    08:00 +25°C° 0 mm 2 mps 691 mmHg 37%
    09:00 +27°C° 0 mm 2 mps 691 mmHg 33%
    10:00 +28°C° 0 mm 2 mps 691 mmHg 32%
    11:00 +29°C° 0 mm 3 mps 691 mmHg 31%
    12:00 +30°C° 0 mm 3 mps 691 mmHg 29%
    13:00 +30°C° 0,1 mm 3 mps 690 mmHg 29%
    14:00 +31°C° 0,1 mm 3 mps 690 mmHg 29%
    15:00 +31°C° 0,1 mm 3 mps 690 mmHg 29%
    16:00 +30°C° 0,1 mm 3 mps 690 mmHg 32%
    17:00 +29°C° 0,1 mm 2 mps 690 mmHg 34%
    18:00 +29°C° 0,1 mm 2 mps 690 mmHg 37%
    19:00 +27°C° 0 mm 2 mps 690 mmHg 41%
    20:00 +25°C° 0 mm 2 mps 690 mmHg 44%
    21:00 +23°C° 0 mm 2 mps 690 mmHg 48%
    22:00 +23°C° 0 mm 2 mps 690 mmHg 48%
    23:00 +21°C° 0 mm 2 mps 690 mmHg 48%

    Mañana, 24 Junio, Domingo

    Tiempo Temperatura Precipitaciones Viento Presión Humedad
    00:00 +21°C° 0 mm 2 mps 690 mmHg 48%
    01:00 +20°C° 0 mm 2 mps 690 mmHg 49%
    02:00 +20°C° 0 mm 2 mps 690 mmHg 50%
    03:00 +20°C° 0 mm 2 mps 691 mmHg 50%
    04:00 +21°C° 0 mm 2 mps 691 mmHg 51%
    05:00 +21°C° 0 mm 2 mps 691 mmHg 51%
    06:00 +23°C° 0 mm 2 mps 691 mmHg 51%
    07:00 +25°C° 0 mm 2 mps 692 mmHg 47%
    08:00 +26°C° 0 mm 2 mps 692 mmHg 43%
    09:00 +28°C° 0 mm 2 mps 692 mmHg 38%
    10:00 +29°C° 0 mm 3 mps 692 mmHg 37%
    11:00 +30°C° 0 mm 3 mps 692 mmHg 35%
    12:00 +31°C° 0 mm 3 mps 692 mmHg 34%
    13:00 +31°C° 0 mm 3 mps 691 mmHg 33%
    14:00 +33°C° 0 mm 3 mps 691 mmHg 33%
    15:00 +33°C° 0 mm 3 mps 691 mmHg 33%
    16:00 +33°C° 0 mm 3 mps 691 mmHg 35%
    17:00 +31°C° 0 mm 2 mps 691 mmHg 37%
    18:00 +31°C° 0 mm 2 mps 691 mmHg 39%
    19:00 +29°C° 0 mm 2 mps 691 mmHg 43%
    20:00 +27°C° 0 mm 2 mps 691 mmHg 47%
    21:00 +25°C° 0 mm 2 mps 691 mmHg 51%
    22:00 +24°C° 0 mm 2 mps 691 mmHg 52%
    23:00 +23°C° 0 mm 2 mps 692 mmHg 53%

    Pasado mañana, 25 Junio, Lunes

    Tiempo Temperatura Precipitaciones Viento Presión Humedad
    00:00 +23°C° 0 mm 2 mps 692 mmHg 53%
    01:00 +21°C° 0 mm 2 mps 692 mmHg 54%
    02:00 +21°C° 0 mm 2 mps 692 mmHg 54%
    03:00 +21°C° 0 mm 2 mps 692 mmHg 55%
    04:00 +21°C° 0 mm 2 mps 692 mmHg 53%
    05:00 +23°C° 0 mm 2 mps 692 mmHg 51%
    06:00 +24°C° 0 mm 2 mps 693 mmHg 50%
    07:00 +26°C° 0 mm 2 mps 693 mmHg 44%
    08:00 +27°C° 0 mm 2 mps 693 mmHg 38%
    09:00 +29°C° 0 mm 2 mps 693 mmHg 32%
    10:00 +30°C° 0 mm 3 mps 693 mmHg 31%
    11:00 +31°C° 0 mm 3 mps 693 mmHg 30%
    12:00 +33°C° 0 mm 3 mps 693 mmHg 28%
    13:00 +33°C° 0 mm 4 mps 693 mmHg 29%
    14:00 +34°C° 0 mm 4 mps 693 mmHg 29%
    15:00 +34°C° 0 mm 4 mps 692 mmHg 29%
    16:00 +33°C° 0 mm 4 mps 692 mmHg 32%
    17:00 +33°C° 0 mm 3 mps 692 mmHg 34%
    18:00 +31°C° 0 mm 3 mps 692 mmHg 37%
    19:00 +29°C° 0 mm 3 mps 692 mmHg 40%
    20:00 +27°C° 0 mm 2 mps 692 mmHg 44%
    21:00 +24°C° 0 mm 2 mps 692 mmHg 48%
    22:00 +24°C° 0 mm 2 mps 692 mmHg 48%
    23:00 +23°C° 0 mm 2 mps 692 mmHg 48%

    26 Junio, Martes

    Tiempo Temperatura Precipitaciones Viento Presión Humedad
    00:00 +23°C° 0 mm 2 mps 692 mmHg 49%
    01:00 +23°C° 0 mm 2 mps 692 mmHg 47%
    02:00 +21°C° 0 mm 2 mps 692 mmHg 44%
    03:00 +21°C° 0 mm 2 mps 691 mmHg 42%
    04:00 +23°C° 0 mm 2 mps 692 mmHg 41%
    05:00 +23°C° 0 mm 2 mps 692 mmHg 40%
    06:00 +24°C° 0 mm 2 mps 692 mmHg 39%
    07:00 +26°C° 0 mm 2 mps 692 mmHg 36%
    08:00 +28°C° 0 mm 2 mps 693 mmHg 33%
    09:00 +30°C° 0 mm 2 mps 693 mmHg 30%
    10:00 +31°C° 0 mm 2 mps 693 mmHg 29%
    11:00 +32°C° 0 mm 2 mps 692 mmHg 28%
    12:00 +34°C° 0 mm 3 mps 692 mmHg 27%
    13:00 +34°C° 0 mm 3 mps 692 mmHg 27%
    14:00 +35°C° 0 mm 3 mps 692 mmHg 27%
    15:00 +35°C° 0 mm 3 mps 691 mmHg 27%
    16:00 +34°C° 0 mm 3 mps 691 mmHg 30%
    17:00 +34°C° 0 mm 2 mps 691 mmHg 32%
    18:00 +32°C° 0 mm 2 mps 691 mmHg 35%
    19:00 +30°C° 0 mm 2 mps 691 mmHg 38%
    20:00 +28°C° 0 mm 2 mps 691 mmHg 42%
    21:00 +26°C° 0 mm 2 mps 692 mmHg 46%
    22:00 +25°C° 0 mm 2 mps 691 mmHg 47%
    23:00 +25°C° 0 mm 2 mps 691 mmHg 47%

    27 Junio, Miércoles

    Tiempo Temperatura Precipitaciones Viento Presión Humedad
    00:00 +24°C° 0 mm 2 mps 691 mmHg 48%
    01:00 +24°C° 0 mm 2 mps 691 mmHg 47%
    02:00 +23°C° 0 mm 2 mps 691 mmHg 46%
    03:00 +23°C° 0 mm 2 mps 691 mmHg 46%
    04:00 +24°C° 0 mm 2 mps 691 mmHg 45%
    05:00 +25°C° 0 mm 2 mps 691 mmHg 44%
    06:00 +25°C° 0 mm 2 mps 692 mmHg 43%
    07:00 +27°C° 0 mm 2 mps 692 mmHg 38%
    08:00 +29°C° 0 mm 2 mps 692 mmHg 33%
    09:00 +31°C° 0 mm 2 mps 692 mmHg 28%
    10:00 +32°C° 0 mm 2 mps 692 mmHg 26%
    11:00 +34°C° 0 mm 2 mps 692 mmHg 25%
    12:00 +35°C° 0 mm 3 mps 692 mmHg 23%
    13:00 +36°C° 0 mm 3 mps 692 mmHg 23%
    14:00 +36°C° 0 mm 3 mps 691 mmHg 23%
    15:00 +37°C° 0 mm 3 mps 691 mmHg 23%
    16:00 +36°C° 0 mm 2 mps 691 mmHg 25%
    17:00 +35°C° 0 mm 2 mps 691 mmHg 27%
    18:00 +34°C° 0 mm 2 mps 691 mmHg 30%
    19:00 +31°C° 0 mm 2 mps 691 mmHg 33%
    20:00 +29°C° 0 mm 2 mps 691 mmHg 35%
    21:00 +27°C° 0 mm 2 mps 691 mmHg 38%
    22:00 +26°C° 0 mm 2 mps 691 mmHg 39%
    23:00 +25°C° 0 mm 2 mps 691 mmHg 40%

    28 Junio, Jueves

    Tiempo Temperatura Precipitaciones Viento Presión Humedad
    00:00 +25°C° 0 mm 2 mps 691 mmHg 41%
    01:00 +24°C° 0 mm 2 mps 691 mmHg 41%
    02:00 +24°C° 0 mm 2 mps 691 mmHg 41%
    03:00 +24°C° 0 mm 2 mps 691 mmHg 41%
    04:00 +24°C° 0 mm 2 mps 691 mmHg 41%
    05:00 +25°C° 0 mm 2 mps 692 mmHg 41%
    06:00 +26°C° 0 mm 2 mps 692 mmHg 40%
    07:00 +28°C° 0 mm 2 mps 692 mmHg 35%
    08:00 +30°C° 0 mm 2 mps 693 mmHg 30%
    09:00 +32°C° 0 mm 2 mps 693 mmHg 25%
    10:00 +34°C° 0 mm 2 mps 693 mmHg 24%
    11:00 +35°C° 0 mm 3 mps 693 mmHg 23%
    12:00 +35°C° 0 mm 3 mps 693 mmHg 22%
    13:00 +36°C° 0 mm 3 mps 693 mmHg 22%
    14:00 +36°C° 0 mm 3 mps 692 mmHg 22%
    15:00 +37°C° 0 mm 3 mps 692 mmHg 23%
    16:00 +36°C° 0 mm 3 mps 692 mmHg 25%
    17:00 +35°C° 0 mm 3 mps 692 mmHg 27%
    18:00 +34°C° 0 mm 3 mps 692 mmHg 29%
    19:00 +31°C° 0 mm 3 mps 692 mmHg 31%
    20:00 +29°C° 0 mm 3 mps 692 mmHg 34%
    21:00 +26°C° 0 mm 2 mps 692 mmHg 36%
    22:00 +26°C° 0 mm 3 mps 692 mmHg 36%
    23:00 +25°C° 0 mm 3 mps 692 mmHg 37%
    Mostrar más